Stations météo

Publicité
Figari, France (7780): Température de l'air & dewpoint: 19.06.2018 21:00:00 - 25.06.2018 21:00:00 (CEST)Figari, France (7780): Température de l'air 5cm: 19.06.2018 21:00:00 - 25.06.2018 21:00:00 (CEST)Figari, France (7780): Vitesse du vent & gusts: 19.06.2018 21:00:00 - 25.06.2018 21:00:00 (CEST)Figari, France (7780): Direction du vent: 19.06.2018 21:00:00 - 25.06.2018 21:00:00 (CEST)Figari, France (7780): reduced air pressure: 19.06.2018 21:00:00 - 25.06.2018 21:00:00 (CEST)Figari, France (7780): visibility: 19.06.2018 21:00:00 - 25.06.2018 21:00:00 (CEST)Figari, France (7780): Quantités de précipitations: 19.06.2018 21:00:00 - 25.06.2018 21:00:00 (CEST)
Date & Time tt [°C] td [°C] tt 5cm [°C] ff [km/h] ff [knt] fx [km/h] fx [knt] dd ppp [hPa] vv [km] rr [mm]
25.06.2018 21:00:00 19,5 16,2 15,2 6 3 10 6 NW 1015,7 54 0,0
25.06.2018 20:00:00 23,1 17,8 21,4 6 3 9 5 NNW 1015,3 55 0,0
25.06.2018 19:00:00 21,9 17,3 21,3 5 3 23 12 N 1014,9 56 0,0
25.06.2018 18:00:00 21,8 16,3 21,8 9 5 22 12 ENE 1014,4 60 0,0
25.06.2018 17:00:00 19,8 17,4 17,8 4 2 19 11 ESE 1015,1 59 0,6
25.06.2018 16:00:00 17,8 15,6 15,9 11 6 34 18 NNW 1016,6 7 3,7
25.06.2018 15:00:00 17,5 15,1 15,9 24 13 40 22 NW 1016,0 19 10,9
25.06.2018 14:00:00 18,9 15,9 17,1 21 11 42 23 ENE 1015,7 1,9 3,1
25.06.2018 13:00:00 27,4 14,4 36,1 16 9 31 17 SW 1014,5 60 0,0
25.06.2018 12:00:00 27,7 16,3 40,2 16 9 27 14 SSW 1014,6 40 0,0
25.06.2018 11:00:00 27,1 15,8 37,2 12 7 21 12 SSW 1014,4 56 0,0
25.06.2018 10:00:00 26,1 13,6 33,8 12 7 21 11 SW 1014,4 59 0,0
25.06.2018 09:00:00 24,9 15,0 25,1 2 1 8 5 S 1014,5 50 0,0
25.06.2018 08:00:00 20,4 15,6 12,5 2 1 6 3 E 1014,5 44 0,0
25.06.2018 07:00:00 14,5 14,0 7,5 4 2 7 4 NNE 1014,6 33 0,0
25.06.2018 06:00:00 11,2 10,4 7,3 3 2 8 4 NNE 1014,5 28 0,0
25.06.2018 05:00:00 11,5 10,7 7,4 3 2 8 4 NNE 1014,4 30 0,0
25.06.2018 04:00:00 11,6 10,3 7,6 4 2 9 5 NNE 1014,6 41 0,0
25.06.2018 03:00:00 12,4 11,0 8,1 4 2 8 5 NNE 1014,9 50 0,0
25.06.2018 02:00:00 13,5 11,2 9,1 5 3 11 6 N 1015,2 57 0,0
25.06.2018 01:00:00 14,9 11,7 9,6 7 4 13 7 N 1015,5 60 0,0
25.06.2018 00:00:00 15,9 12,1 10,8 7 4 17 9 N 1015,4 60 0,0
24.06.2018 23:00:00 16,8 12,9 12,4 8 4 17 9 N 1015,6 26 0,0
24.06.2018 22:00:00 17,4 14,5 13,7 4 2 8 4 NE 1014,8 55 0,0
24.06.2018 21:00:00 20,0 13,7 15,5 3 2 11 6 N 1015,0 59 0,0
24.06.2018 20:00:00 23,5 14,8 20,3 8 4 14 8 NNE 1015,5 60 0,0
24.06.2018 19:00:00 24,1 13,9 24,4 9 5 27 15 E 1015,5 60 0,0
24.06.2018 18:00:00 20,7 15,9 17,5 12 6 35 19 ENE 1015,7 60 0,0
24.06.2018 17:00:00 21,7 17,7 22,4 19 10 39 21 NE 1016,6 47 0,0
24.06.2018 16:00:00 24,6 15,0 26,8 18 10 36 19 NE 1015,5 52 0,0
24.06.2018 15:00:00 28,6 15,5 36,7 16 9 33 18 ENE 1015,0 60 0,0
24.06.2018 14:00:00 27,2 17,1 30,9 16 9 32 17 ENE 1015,8 60 0,0
24.06.2018 13:00:00 27,1 16,1 35,8 19 10 33 18 NE 1016,3 51 0,0
24.06.2018 12:00:00 26,5 18,1 30,4 14 8 33 18 E 1016,8 57 0,0
24.06.2018 11:00:00 26,7 16,9 34,6 19 10 41 22 ENE 1016,6 45 0,0
24.06.2018 10:00:00 25,6 17,8 27,8 20 11 33 18 NE 1016,3 48 0,0
24.06.2018 09:00:00 23,8 17,5 22,3 17 9 31 17 ENE 1016,5 50 0,0
24.06.2018 08:00:00 22,4 15,7 17,8 12 6 25 13 ENE 1016,3 59 0,0
24.06.2018 07:00:00 20,3 15,3 13,6 9 5 19 10 E 1016,2 59 0,0
24.06.2018 06:00:00 18,6 14,5 12,4 10 5 18 10 E 1016,1 60 0,0
24.06.2018 05:00:00 17,7 14,6 12,2 6 4 22 12 E 1016,0 56 0,0
24.06.2018 04:00:00 18,2 14,9 15,2 14 8 27 15 ENE 1016,1 60 0,0
24.06.2018 03:00:00 18,9 15,4 15,1 14 8 24 13 ENE 1016,2 43 0,0
24.06.2018 02:00:00 19,0 15,7 12,9 14 8 22 12 ENE 1016,5 37 0,0
24.06.2018 01:00:00 18,5 15,7 12,0 10 6 16 9 ENE 1016,9 37 0,0
24.06.2018 00:00:00 17,6 15,6 12,0 8 4 14 8 NE 1017,1 36 0,0
23.06.2018 23:00:00 18,8 15,5 13,9 5 3 18 10 N 1016,9 45 0,0
23.06.2018 22:00:00 19,4 15,9 14,0 9 5 14 7 NE 1016,5 57 0,0
23.06.2018 21:00:00 22,5 17,0 17,1 3 1 14 8 N 1015,9 52 0,0
23.06.2018 20:00:00 24,6 17,1 22,6 11 6 17 9 SW 1015,8 56 0,0
23.06.2018 19:00:00 26,2 17,0 25,9 8 4 22 12 S 1015,4 30 0,0
23.06.2018 18:00:00 26,8 17,8 31,5 12 7 29 16 ENE 1015,8 57 0,0
23.06.2018 17:00:00 26,9 15,6 25,6 16 9 31 17 ENE 1015,8 15 0,0
23.06.2018 16:00:00 25,2 18,2 27,7 18 10 35 19 ENE 1015,9 49 0,0
23.06.2018 15:00:00 26,9 18,2 31,7 17 9 32 18 ENE 1016,0 58 0,0
23.06.2018 14:00:00 26,9 19,5 31,1 18 10 34 18 NE 1016,0 59 0,0
23.06.2018 13:00:00 26,8 18,9 31,4 18 10 38 21 ENE 1016,2 36 0,0
23.06.2018 12:00:00 26,4 19,3 30,0 21 12 38 21 ENE 1016,1 38 0,0
23.06.2018 11:00:00 26,7 19,3 30,0 22 12 44 24 NE 1015,7 35 0,0
23.06.2018 10:00:00 25,5 19,6 26,1 16 8 42 23 ENE 1015,5 33 0,0
23.06.2018 09:00:00 24,4 19,2 25,6 16 9 35 19 NE 1015,5 48 0,0
23.06.2018 08:00:00 21,9 17,3 16,8 2 1 6 3 WSW 1015,1 31 0,0
23.06.2018 07:00:00 17,1 16,3 13,5 5 3 10 5 NNE 1015,0 27 0,0
23.06.2018 06:00:00 15,4 14,8 11,1 4 2 9 5 NE 1014,8 23 0,0
23.06.2018 05:00:00 15,4 14,4 11,3 3 2 8 4 NNE 1014,3 24 0,0
23.06.2018 04:00:00 17,0 15,5 12,9 3 2 5 3 SSE 1014,2 23 0,0
23.06.2018 03:00:00 18,0 17,0 16,0 0 0 6 3 N 1014,1 29 0,0
23.06.2018 02:00:00 16,9 16,1 10,8 3 1 8 4 W 1014,2 27 0,0
23.06.2018 01:00:00 14,9 13,6 10,8 5 3 7 4 SE 1014,2 25 0,0
23.06.2018 00:00:00 15,7 13,9 11,3 4 2 7 4 W 1013,9 28 0,0
22.06.2018 23:00:00 17,1 15,6 11,4 5 3 6 3 W 1013,8 26 0,0
22.06.2018 22:00:00 17,6 14,7 11,9 4 2 24 13 SW 1013,3 29 0,0
22.06.2018 21:00:00 20,6 15,8 18,7 20 11 37 20 WSW 1012,5 33 0,0
22.06.2018 20:00:00 22,1 16,6 20,7 23 12 43 23 WSW 1012,4 26 0,0
22.06.2018 19:00:00 24,3 17,3 24,1 27 15 49 27 WSW 1012,0 18 0,0
22.06.2018 18:00:00 25,8 17,2 29,4 32 17 51 28 WSW 1011,8 17 0,0
22.06.2018 17:00:00 26,4 17,5 31,3 34 19 51 28 WSW 1012,0 17 0,0
22.06.2018 16:00:00 27,1 19,2 33,3 32 18 50 27 WSW 1012,0 18 0,0
22.06.2018 15:00:00 26,8 20,6 31,7 34 18 51 27 WSW 1012,6 19 0,0
22.06.2018 14:00:00 26,6 20,2 32,9 28 15 49 26 W 1013,3 21 0,0
22.06.2018 13:00:00 26,9 19,8 30,7 31 17 48 26 WSW 1013,6 23 0,0
22.06.2018 12:00:00 26,3 19,2 32,7 29 16 51 27 SW 1013,6 18 0,0
22.06.2018 11:00:00 26,3 20,2 29,0 31 17 48 26 SW 1013,6 17 0,0
22.06.2018 10:00:00 26,2 19,6 31,0 28 15 39 21 SW 1013,7 13 0,0
22.06.2018 09:00:00 25,8 15,5 28,2 27 14 37 20 WSW 1014,1 14 0,0
22.06.2018 08:00:00 25,0 14,8 22,4 18 10 34 18 WSW 1014,0 17 0,0
22.06.2018 07:00:00 22,8 16,1 20,0 23 13 35 19 SW 1014,0 17 0,0
22.06.2018 06:00:00 22,5 13,6 19,5 21 11 33 18 WSW 1014,0 60 0,0
22.06.2018 05:00:00 22,4 14,3 19,0 21 12 34 19 SW 1014,3 60 0,0
22.06.2018 04:00:00 21,4 16,4 18,9 21 11 29 16 SW 1014,6 53 0,0
22.06.2018 03:00:00 21,2 17,2 19,0 21 11 35 19 SW 1015,1 50 0,0
22.06.2018 02:00:00 21,7 18,1 19,2 28 15 40 21 SW 1014,9 48 0,0
22.06.2018 01:00:00 21,6 17,6 18,9 18 10 34 18 SW 1015,3 50 0,0
22.06.2018 00:00:00 22,0 18,2 18,7 16 9 27 15 SSW 1015,4 52 0,0
21.06.2018 23:00:00 22,0 16,7 14,7 20 11 30 16 WSW 1015,7 48 0,0
21.06.2018 22:00:00 22,1 17,9 15,8 11 6 19 11 S 1015,3 49 0,0
21.06.2018 21:00:00 24,3 12,9 20,3 14 8 25 13 SW 1014,8 60 0,0
21.06.2018 20:00:00 27,6 12,8 24,5 16 9 33 18 W 1014,8 57 0,0
21.06.2018 19:00:00 28,6 13,7 26,8 18 10 37 20 W 1015,0 40 0,0
21.06.2018 18:00:00 30,1 14,2 32,6 20 11 39 21 W 1015,0 33 0,0
21.06.2018 17:00:00 30,6 16,6 36,8 26 14 40 21 W 1015,2 29 0,0
21.06.2018 16:00:00 30,3 18,4 38,0 22 12 39 21 WSW 1015,7 32 0,0
21.06.2018 15:00:00 30,5 18,6 28,8 21 11 36 19 SW 1015,9 37 0,0
21.06.2018 14:00:00 29,1 18,5 33,1 25 13 37 20 SW 1016,3 43 0,0
21.06.2018 13:00:00 30,1 18,8 41,7 21 12 35 19 SW 1016,7 52 0,0
21.06.2018 12:00:00 28,8 20,3 42,2 16 8 27 15 S 1017,3 60 0,0
21.06.2018 11:00:00 27,3 19,6 39,2 11 6 23 13 S 1017,3 60 0,0
21.06.2018 10:00:00 26,9 20,5 34,6 8 4 17 9 S 1017,3 54 0,0
21.06.2018 09:00:00 25,1 19,9 27,3 6 3 11 6 SW 1017,6 24 0,0
21.06.2018 08:00:00 22,2 18,8 15,7 0 0 7 4 N 1017,8 38 0,0
21.06.2018 07:00:00 16,8 16,3 10,4 3 2 6 3 ESE 1017,7 18 0,0
21.06.2018 06:00:00 13,7 12,9 10,1 2 1 7 4 N 1018,0 12 0,0
21.06.2018 05:00:00 14,3 13,5 10,1 4 2 8 4 ENE 1017,7 15 0,0
21.06.2018 04:00:00 15,0 14,4 10,6 0 0 6 4 N 1017,7 13 0,0
21.06.2018 03:00:00 15,6 15,0 11,3 4 2 7 4 E 1018,1 20 0,0
21.06.2018 02:00:00 15,9 14,8 11,7 3 2 8 4 NNE 1018,1 19 0,0
21.06.2018 01:00:00 17,0 15,7 12,5 7 4 9 5 NNE 1018,3 22 0,0
21.06.2018 00:00:00 18,3 16,5 13,3 5 3 10 6 NNE 1018,6 24 0,0
20.06.2018 23:00:00 19,9 17,5 15,8 8 5 16 8 NE 1018,6 30 0,0
20.06.2018 22:00:00 21,3 18,7 17,4 10 6 17 9 NE 1018,2 31 0,0
20.06.2018 21:00:00 23,0 18,1 18,4 9 5 15 8 NE 1017,7 43 0,0
20.06.2018 20:00:00 27,0 17,8 23,7 7 4 18 10 WSW 1017,6 56 0,0
20.06.2018 19:00:00 28,3 17,8 27,1 10 5 20 11 SSW 1017,6 60 0,0
20.06.2018 18:00:00 29,5 16,0 35,2 10 5 21 11 SW 1017,3 59 0,0
20.06.2018 17:00:00 29,9 15,2 40,1 12 6 22 12 SSW 1017,4 52 0,0
20.06.2018 16:00:00 30,1 17,5 42,0 13 7 20 11 SSW 1017,7 57 0,0
20.06.2018 15:00:00 29,9 17,4 31,3 13 7 24 13 SSW 1018,0 60 0,0
20.06.2018 14:00:00 27,7 17,2 30,3 13 7 24 13 WSW 1018,3 54 0,0
20.06.2018 13:00:00 29,5 19,2 35,5 16 9 26 14 SW 1018,5 60 0,0
20.06.2018 12:00:00 29,0 18,7 39,4 12 7 24 13 SW 1018,6 57 0,0
20.06.2018 11:00:00 28,7 19,3 39,7 13 7 21 11 SSW 1018,6 41 0,0
20.06.2018 10:00:00 27,7 17,8 35,5 4 2 14 7 W 1018,5 54 0,0
20.06.2018 09:00:00 24,9 20,2 25,2 4 2 11 6 WSW 1019,0 22 0,0
20.06.2018 08:00:00 21,8 21,3 16,5 0 0 7 4 N 1018,9 0,2 0,0
20.06.2018 07:00:00 16,8 16,0 10,7 4 2 7 4 ENE 1018,4 19 0,0
20.06.2018 06:00:00 14,1 13,5 10,4 3 2 8 4 NE 1018,3 18 0,0
20.06.2018 05:00:00 14,1 13,1 10,7 3 2 9 5 S 1018,1 20 0,0
20.06.2018 04:00:00 15,0 14,0 11,1 4 2 9 5 N 1018,3 26 0,0
20.06.2018 03:00:00 15,1 14,0 11,3 3 1 9 5 N 1018,3 30 0,0
20.06.2018 02:00:00 15,9 14,6 12,1 5 3 8 5 ESE 1018,1 38 0,0
20.06.2018 01:00:00 16,6 15,0 12,2 6 3 15 8 NNE 1018,3 31 0,0
20.06.2018 00:00:00 17,1 15,3 12,4 3 1 9 5 NE 1018,1 25 0,0
19.06.2018 23:00:00 17,9 16,2 12,9 6 3 9 5 NE 1018,1 25 0,0
19.06.2018 22:00:00 19,4 16,8 14,2 5 3 9 5 NNE 1017,7 38 0,0
19.06.2018 21:00:00 22,9 17,1 17,0 4 2 11 6 SE 1017,3 43 0,0

tt = Température de l'air
td = dewpoint
tt 5cm = Température de l'air 5cm
ff = Vitesse du vent
fx = gusts
dd = Direction du vent
ppp = reduced air pressure
vv = visibility
rr = Quantités de précipitations

stations d'obs. à proximité